User: anonymous   Login
Location: Newark
(44.6028°N, 124.0883°W)
Time: 00:09:29
(UTC+00:00)
Language:

QB50P2 - Orbit

View from above orbital plane
View from above orbital plane
View from above satellite
View from above satellite

Ground track
Ground track

The orbit data is extracted from the following two-line orbital elements,

1 40032U 14033Y   19344.74856026  .00000177  00000-0  25059-4 0  9999
2 40032  97.9002 262.0046 0011340 193.7727 166.3182 14.88565402297281
Epoch (UTC): 10 December 2019 17:57:55
Eccentricity: 0.0011340
inclination: 97.9002°
perigee height: 594 km
apogee height: 610 km
right ascension of ascending node: 262.0046°
argument of perigee: 193.7727°
revolutions per day: 14.88565402
mean anomaly at epoch: 166.3182°
orbit number at epoch: 29728

The dashed part of the orbit path shows where the satellite is in the earth's shadow,  

DLR